Regional Weather Roundup
Issued by NWS

Home | Current Version | Previous Version | Graphics & Text | Print | Product List | Glossary On
Versions: 1 2 3 4 5 6 7 8 9 10 11 12 13 14 15 16 17 18 19 20 21 22 23 24 25 26 27 28 29 30 31 32 33 34 35 36 37 38 39 40 41 42 43 44 45 46 47 48 49 50
000
ASUS45 KABQ 300410
RWRNM
WEATHER ROUNDUP FOR NEW MEXICO
NATIONAL WEATHER SERVICE ALBUQUERQUE NM
1000 PM MDT WED OCT 29 2014

NOTE: "FAIR" MEANS FEW OR NO CLOUDS BELOW 12,000 FEET AGL WITH NO
       SIGNIFICANT WEATHER OR OBSTRUCTIONS TO VISION.

      THIS PRODUCT IS RELEASED AS TWO VERSIONS.  ONE VERSION NEAR
      THE TOP OF THE HOUR CONTAINING PRELIMINARY DATA FROM ALBUQUERQUE
      AND OTHER STATIONS.  A FINAL VERSION WITH ADDITIONAL DATA IS
      ISSUED ABOUT 10 MINUTES AFTER THE HOUR.

NMZ501-503-504-510>518-300500-
NORTHWEST PLATEAU/NORTHCENTRAL MOUNTAINS

CITY           SKY/WX    TMP DP  RH WIND       PRES   REMARKS
FARMINGTON     CLEAR     49  11  21 W6        30.27R
LOS ALAMOS     PTCLDY    54   6  14 W5        30.32R
SANTA FE       CLEAR     44  11  26 N7        30.26F
TAOS           CLEAR     37   7  28 SE6       30.32S WCI  33
ANGEL FIRE     FAIR      31  12  46 CALM      30.36S

$$
NMZ402-403-502-505>509-300500-
WESTCENTRAL MOUNTAINS/SOUTHWEST MOUNTAINS

CITY           SKY/WX    TMP DP  RH WIND       PRES   REMARKS
GALLUP         CLEAR     40  17  39 CALM      30.33S
GRANTS         CLEAR     45  10  24 NW3       30.34R
SILVER CITY    CLEAR     54  37  54 N9        30.27R

$$
NMZ407-409-411-412-300500-
SOUTHERN DESERTS

CITY           SKY/WX    TMP DP  RH WIND       PRES   REMARKS
LORDSBURG      FAIR      57  37  47 S7        30.19R
DEMING         CLEAR     56  39  53 N7        30.19R
LAS CRUCES     CLEAR     58  41  52 NW3       30.20S
HOLLOMAN AFB   CLEAR     57  34  42 E3        30.16S
T OR C         CLEAR     58  35  42 NW9       30.21R

$$
NMZ519>523-300500-
CENTRAL VALLEYS/CENTRAL HIGHLANDS

CITY           SKY/WX    TMP DP  RH WIND       PRES   REMARKS
ALBUQUERQUE    CLEAR     55  16  21 CALM      30.26R
DOUBLE EAGLE   CLEAR     45  12  26 W5        30.27S
MORIARTY ARPT  FAIR      37  16  43 CALM      30.29R
CLINES CORNERS PTCLDY    46  15  28 W15       30.28S
BELEN          NOT AVBL
SOCORRO        FAIR      53  32  44 NW7       30.22R

$$
NMZ524>526-539-540-300500-
SOUTHCENTRAL MOUNTAINS

CITY           SKY/WX    TMP DP  RH WIND       PRES   REMARKS
RUIDOSO        CLEAR     54  27  35 W7        30.31F

$$
NMZ527>531-300500-
NORTHEAST HIGHLANDS/NORTHEAST PLAINS

CITY           SKY/WX    TMP DP  RH WIND       PRES   REMARKS
LAS VEGAS      CLEAR     54   7  15 CALM      30.23S
RATON          CLEAR     42  22  44 NE6       30.19R
CLAYTON        CLEAR     50  25  37 W7        30.12S

$$
NMZ532>537-300500-
EASTCENTRAL PLAINS

CITY           SKY/WX    TMP DP  RH WIND       PRES   REMARKS
TUCUMCARI      CLEAR     59  43  55 S14       30.09F
CANNON AFB     CLEAR     53  41  63 SW3       30.16R
CLOVIS AIRPORT CLEAR     50  39  66 SW9       30.19R

$$
NMZ028-029-538-300500-
SOUTHEAST PLAINS

CITY           SKY/WX    TMP DP  RH WIND       PRES   REMARKS
ROSWELL        CLEAR     55  48  77 SW9       30.14F
CARLSBAD       CLEAR     60  51  72 S12       30.14S
HOBBS          CLEAR     54  48  82 CALM      30.17F


$$



USA.gov is the U.S. government's official web portal to all federal, state and local government web resources and services.